FW1589 Weather Reports


Display with metric or nautical units.
time (UTC)temp
F
wind
direction
speed
MPH
gust
MPH
rain 1hr
in
rain 24hr
in
rain mn
in
humidity
%
barometer
mb
20260504150820 54 238 0.0 0.0 0.00 0.00 0.00 89 997.5
20260504150315 54 239 0.0 0.0 0.00 0.00 0.00 90 997.5
20260504141214 52 205 0.0 0.0 0.00 0.00 0.00 89 997.4
20260504140709 52 205 0.0 0.0 0.00 0.00 0.00 89 997.3
20260504140203 52 205 0.0 0.0 0.00 0.00 0.00 89 997.3
20260504130557 52 206 0.0 0.0 0.00 0.00 0.00 88 996.9
20260504110455 53 260 0.0 1.0 0.00 0.00 0.00 87 996.8
20260504100444 53 260 0.0 3.0 0.00 0.00 0.00 87 996.7
20260504081937 54 250 2.0 8.0 0.00 0.00 0.00 87 997.0
20260504081435 54 227 1.0 4.0 0.00 0.00 0.00 87 997.0
20260504050720 55 258 1.0 4.0 0.00 0.00 0.00 84 997.0
20260504050217 54 264 1.0 4.0 0.00 0.00 0.00 84 996.8
20260504045718 54 269 1.0 5.0 0.00 0.00 0.00 84 996.8
20260504045217 54 256 1.0 5.0 0.00 0.00 0.00 84 996.7
20260504044717 54 266 2.0 7.0 0.00 0.00 0.00 84 996.7
20260504044217 54 270 2.0 7.0 0.00 0.00 0.00 84 996.6
20260504042215 54 281 1.0 6.0 0.00 0.00 0.00 84 996.7
20260504041716 54 226 1.0 3.0 0.00 0.00 0.00 84 996.5
20260504040712 55 172 1.0 3.0 0.00 0.00 0.00 84 996.4
20260504040211 55 277 1.0 3.0 0.00 0.00 0.00 84 996.3
20260504035709 55 263 1.0 4.0 0.00 0.00 0.00 84 996.3
20260504035206 55 221 1.0 5.0 0.00 0.00 0.00 84 996.3
20260504034702 55 225 1.0 4.0 0.00 0.00 0.00 84 996.2
20260504034155 55 232 2.0 4.0 0.00 0.00 0.00 84 996.2
20260504033145 55 236 2.0 8.0 0.00 0.00 0.00 84 996.1
20260504031646 55 232 2.0 7.0 0.00 0.00 0.00 84 995.9
20260504030646 55 215 2.0 7.0 0.00 0.00 0.00 82 995.9
20260504030143 56 223 2.0 5.0 0.00 0.00 0.00 82 996.0
20260504025644 56 211 3.0 8.0 0.00 0.00 0.00 81 995.9
20260504025144 56 213 3.0 8.0 0.00 0.00 0.00 80 995.9
20260504024139 56 246 3.0 8.0 0.00 0.00 0.00 80 995.7
20260504023138 56 235 4.0 10.0 0.00 0.00 0.00 79 995.5
20260504022639 56 211 4.0 10.0 0.00 0.00 0.00 79 995.5
20260504021638 57 252 2.0 8.0 0.00 0.00 0.00 80 995.6
20260504021138 57 264 2.0 10.0 0.00 0.00 0.00 80 995.5
20260504020640 57 265 2.0 10.0 0.00 0.00 0.00 80 995.5
20260504020134 57 245 2.0 8.0 0.00 0.00 0.00 79 995.5
20260504015628 57 274 2.0 8.0 0.00 0.00 0.00 79 995.6
20260504014616 57 263 4.0 13.0 0.00 0.00 0.00 79 995.7
20260504014110 57 153 3.0 8.0 0.00 0.00 0.00 78 995.7
20260504013604 58 211 3.0 7.0 0.00 0.00 0.00 79 995.7
20260504013058 58 279 2.0 9.0 0.00 0.00 0.00 79 995.8
20260504012555 58 264 3.0 9.0 0.00 0.00 0.00 79 995.7
20260504012055 58 252 3.0 8.0 0.00 0.00 0.00 79 995.8
20260504011553 58 209 3.0 7.0 0.00 0.00 0.00 79 995.7
20260504010549 58 257 3.0 9.0 0.00 0.00 0.00 78 995.9
20260504010047 58 278 3.0 8.0 0.00 0.00 0.00 78 995.9
20260504005545 58 225 3.0 8.0 0.00 0.00 0.00 78 995.9
20260504005043 58 266 3.0 7.0 0.00 0.00 0.00 78 995.9
20260504004543 58 213 4.0 9.0 0.00 0.00 0.00 78 995.9
20260504004042 58 199 3.0 9.0 0.00 0.00 0.00 77 995.9
20260504003543 58 225 3.0 11.0 0.00 0.00 0.00 77 995.9
20260504003044 58 210 3.0 11.0 0.00 0.00 0.00 77 995.7
20260504002542 58 273 4.0 10.0 0.00 0.00 0.00 77 995.6
20260504002040 58 279 3.0 7.0 0.00 0.00 0.00 77 995.6
20260504001540 58 234 3.0 11.0 0.00 0.00 0.00 77 995.7
20260504001041 58 266 3.0 11.0 0.00 0.00 0.00 77 995.6
20260504000541 58 242 4.0 8.0 0.00 0.00 0.00 77 995.6
20260503235542 58 198 4.0 11.0 0.00 0.00 0.00 77 995.5
20260503235036 58 294 3.0 9.0 0.00 0.00 0.00 77 995.5
20260503234530 58 232 3.0 6.0 0.00 0.00 0.00 77 995.5
20260503234029 58 298 4.0 11.0 0.00 0.00 0.00 77 995.6
20260503233530 58 208 4.0 11.0 0.00 0.00 0.00 76 995.6
20260503232528 58 272 3.0 10.0 0.00 0.00 0.00 75 995.6
20260503232029 59 255 4.0 13.0 0.00 0.00 0.00 75 995.6
20260503231530 59 234 4.0 13.0 0.00 0.00 0.00 74 995.5
20260503230529 59 249 4.0 10.0 0.00 0.00 0.00 73 995.5
20260503224526 60 273 4.0 11.0 0.00 0.00 0.00 72 995.5
20260503224025 60 251 3.0 11.0 0.00 0.00 0.00 72 995.6
20260503223526 60 235 4.0 12.0 0.00 0.00 0.00 72 995.8
20260503223025 60 259 4.0 12.0 0.00 0.00 0.00 72 995.7
20260503222025 61 232 4.0 12.0 0.00 0.00 0.00 73 995.6
20260503221526 61 238 5.0 12.0 0.00 0.00 0.00 71 995.7
20260503220521 62 213 5.0 12.0 0.00 0.00 0.00 71 995.7
20260503220021 61 244 5.0 12.0 0.00 0.00 0.00 72 995.6
20260503215521 61 261 5.0 14.0 0.00 0.00 0.00 71 995.6
20260503215021 61 264 5.0 14.0 0.00 0.00 0.00 70 995.7
20260503214520 62 277 5.0 11.0 0.00 0.00 0.00 69 995.6
20260503214021 62 229 4.0 12.0 0.00 0.00 0.00 69 995.7
20260503213520 62 289 5.0 12.0 0.00 0.00 0.00 70 995.6
20260503213020 61 275 5.0 11.0 0.00 0.00 0.00 71 995.6
20260503212522 60 214 6.0 12.0 0.00 0.00 0.00 72 995.6
20260503212019 60 276 6.0 15.0 0.00 0.00 0.00 72 995.6
20260503211518 61 252 5.0 15.0 0.00 0.00 0.00 70 995.6
20260503211018 62 256 5.0 11.0 0.00 0.00 0.00 71 995.7
20260503210019 62 269 4.0 10.0 0.00 0.00 0.00 70 995.5
20260503205017 62 249 4.0 12.0 0.00 0.00 0.00 70 995.5
20260503204016 62 240 5.0 12.0 0.00 0.00 0.00 69 995.5
20260503203516 62 298 4.0 13.0 0.00 0.00 0.00 69 995.5
20260503203014 62 254 5.0 13.0 0.00 0.00 0.00 70 995.5
20260503202514 61 235 5.0 12.0 0.00 0.00 0.00 71 995.5
20260503202015 60 242 4.0 12.0 0.00 0.00 0.00 72 995.6
20260503201003 61 214 4.0 10.0 0.00 0.00 0.00 71 995.6
20260503200457 61 237 5.0 11.0 0.00 0.00 0.00 72 995.6
20260503195951 62 267 4.0 11.0 0.00 0.00 0.00 71 995.6
20260503195445 62 192 3.0 7.0 0.00 0.00 0.00 72 995.7
20260503194939 61 227 4.0 10.0 0.00 0.00 0.00 72 995.7
20260503194433 61 259 3.0 10.0 0.00 0.00 0.00 73 995.7
20260503193926 61 236 3.0 10.0 0.00 0.00 0.00 72 995.7
20260503193421 60 249 4.0 10.0 0.00 0.00 0.00 72 995.7
20260503192915 60 196 3.0 10.0 0.00 0.00 0.00 71 995.8
20260503192409 60 221 3.0 10.0 0.00 0.00 0.00 71 995.7
20260503191357 60 241 4.0 8.0 0.00 0.00 0.00 74 995.7
20260503190851 59 245 4.0 8.0 0.00 0.00 0.00 73 995.8
20260503190345 59 269 4.0 8.0 0.00 0.00 0.00 72 995.8
20260503185839 59 240 4.0 8.0 0.00 0.00 0.00 72 995.8
20260503184827 58 256 4.0 8.0 0.00 0.00 0.00 74 995.8
20260503183814 57 277 4.0 10.0 0.00 0.00 0.00 77 995.8
20260503183309 57 198 4.0 8.0 0.00 0.00 0.00 78 995.9
20260503182803 57 231 4.0 9.0 0.00 0.00 0.00 79 995.8
20260503182257 56 248 5.0 12.0 0.00 0.00 0.00 79 995.8
20260503181751 57 230 4.0 10.0 0.00 0.00 0.00 79 995.9
20260503181245 57 240 3.0 10.0 0.00 0.00 0.00 79 995.8
20260503180739 57 241 2.0 6.0 0.00 0.00 0.00 79 995.8
20260503180233 56 211 2.0 8.0 0.00 0.00 0.00 80 995.8
20260503175727 56 228 3.0 11.0 0.00 0.00 0.00 79 995.8
20260503175221 57 256 3.0 11.0 0.00 0.00 0.00 79 995.7
20260503174715 57 235 3.0 10.0 0.00 0.00 0.00 81 995.7
20260503174209 57 306 3.0 10.0 0.00 0.00 0.00 81 995.6
20260503173157 56 265 4.0 9.0 0.00 0.00 0.00 80 995.7
20260503172657 56 189 3.0 8.0 0.00 0.00 0.00 80 995.6
20260503172144 57 232 3.0 8.0 0.00 0.00 0.00 80 995.6
20260503171640 57 221 3.0 11.0 0.00 0.00 0.00 79 995.7
20260503171133 57 230 3.0 11.0 0.00 0.00 0.00 80 995.7
20260503170626 57 248 4.0 9.0 0.00 0.00 0.00 81 995.7
20260503170120 56 294 3.0 10.0 0.00 0.00 0.00 81 995.6